N2DJ Weather Reports


Display with metric or nautical units.
time (UTC)temp
F
wind
direction
speed
MPH
gust
MPH
rain 1hr
in
rain 24hr
in
rain mn
in
humidity
%
barometer
mb
20260508041512 39 355 0.0 0.0 0.01 0.26 0.00 95 1013.0
20260508040018 39 355 0.0 0.0 0.01 0.26 0.26 95 1013.0
20260508034512 40 355 0.0 1.0 0.01 0.26 0.26 95 1013.1
20260508033009 40 355 0.0 0.0 0.01 0.26 0.26 95 1013.0
20260508031517 40 355 0.0 2.0 0.00 0.25 0.25 95 1012.8
20260508030007 40 355 0.0 0.0 0.01 0.25 0.25 94 1012.8
20260508024507 41 355 0.0 0.0 0.03 0.25 0.25 94 1012.8
20260508023007 42 355 0.0 0.0 0.04 0.25 0.25 94 1012.6
20260508021506 42 355 0.0 2.0 0.05 0.25 0.25 94 1012.8
20260508020007 42 275 0.0 3.0 0.04 0.23 0.23 94 1012.9
20260508014504 42 318 0.0 7.0 0.03 0.22 0.22 94 1012.8
20260508013005 42 252 1.0 5.0 0.02 0.21 0.21 94 1012.8
20260508011503 42 252 1.0 5.0 0.02 0.20 0.20 94 1012.7
20260508010003 43 306 0.0 3.0 0.07 0.19 0.19 93 1012.5
20260508004502 42 360 0.0 0.0 0.10 0.19 0.19 92 1012.0
20260508003002 42 360 0.0 1.0 0.14 0.19 0.19 91 1011.9
20260508001503 42 360 1.0 3.0 0.18 0.18 0.18 91 1011.9
20260508000100 43 284 1.0 8.0 0.12 0.12 0.12 89 1012.4
20260507234601 43 273 1.0 8.0 0.09 0.09 0.09 85 1012.1
20260507233100 46 298 3.0 10.0 0.05 0.05 0.05 80 1011.9
20260507231559 49 301 0.0 0.0 0.00 0.00 0.00 74 1011.4
20260507230115 49 301 0.0 3.0 0.00 0.00 0.00 69 1011.2
20260507224601 50 268 0.0 4.0 0.00 0.00 0.00 69 1011.3
20260507223058 50 250 3.0 7.0 0.00 0.00 0.00 66 1011.3
20260507221602 50 214 4.0 9.0 0.00 0.00 0.00 64 1011.3
20260507220058 51 271 1.0 7.0 0.00 0.00 0.00 64 1011.4
20260507214555 51 280 3.0 9.0 0.00 0.02 0.00 63 1011.3
20260507213100 52 228 2.0 6.0 0.00 0.02 0.00 62 1011.3
20260507211558 51 242 2.0 6.0 0.00 0.02 0.00 65 1011.3
20260507210052 51 266 3.0 5.0 0.00 0.02 0.00 63 1011.4
20260507204557 49 279 1.0 6.0 0.00 0.03 0.00 70 1011.4
20260507203054 49 302 1.0 6.0 0.00 0.03 0.00 70 1011.6
20260507201600 49 319 3.0 7.0 0.00 0.03 0.00 67 1011.7
20260507200052 50 302 2.0 9.0 0.00 0.03 0.00 68 1011.7
20260507194552 50 309 2.0 5.0 0.00 0.03 0.00 64 1011.9
20260507193046 51 310 1.0 6.0 0.00 0.03 0.00 67 1011.9
20260507191608 50 291 3.0 9.0 0.00 0.03 0.00 65 1011.9
20260507190045 49 310 2.0 8.0 0.00 0.03 0.00 66 1012.0
20260507184554 48 290 2.0 11.0 0.00 0.03 0.00 65 1012.0
20260507183046 48 253 2.0 6.0 0.00 0.03 0.00 70 1012.1
20260507181541 47 355 5.0 14.0 0.00 0.03 0.00 67 1012.2
20260507180041 48 221 1.0 7.0 0.00 0.03 0.00 66 1012.4
20260507174542 51 26 1.0 8.0 0.00 0.03 0.00 62 1012.2
20260507173039 51 16 2.0 6.0 0.00 0.03 0.00 63 1012.1
20260507171542 52 313 2.0 8.0 0.00 0.03 0.00 63 1012.4
20260507170037 51 11 4.0 9.0 0.00 0.03 0.00 65 1012.3
20260507164547 51 355 4.0 11.0 0.00 0.03 0.00 63 1012.5
20260507163037 51 263 1.0 4.0 0.00 0.03 0.00 61 1012.7
20260507161539 51 311 2.0 9.0 0.00 0.03 0.00 60 1012.8
20260507160035 51 321 2.0 9.0 0.00 0.03 0.00 60 1013.1
20260507154529 51 15 2.0 11.0 0.00 0.03 0.00 63 1013.0
20260507153024 51 231 4.0 11.0 0.00 0.03 0.00 61 1013.2
20260507151522 50 316 4.0 10.0 0.00 0.03 0.00 66 1013.3
20260507150021 49 308 2.0 5.0 0.00 0.05 0.00 66 1013.3
20260507144516 49 269 1.0 5.0 0.00 0.05 0.00 67 1013.4
20260507143029 48 289 0.0 7.0 0.00 0.05 0.00 69 1013.4
20260507141509 47 294 1.0 7.0 0.00 0.05 0.00 68 1013.4
20260507140006 47 258 2.0 7.0 0.00 0.06 0.00 69 1013.5
20260507134617 46 204 1.0 7.0 0.00 0.06 0.00 73 1013.7
20260507133109 45 67 0.0 5.0 0.00 0.06 0.00 74 1013.7
20260507131607 44 108 0.0 6.0 0.00 0.06 0.00 75 1013.9
20260507130048 43 95 1.0 4.0 0.00 0.06 0.00 80 1014.0
20260507124544 41 99 2.0 6.0 0.00 0.08 0.00 90 1014.0
20260507123045 39 59 1.0 3.0 0.00 0.08 0.00 97 1014.0
20260507121544 39 53 1.0 3.0 0.00 0.08 0.00 97 1014.0
20260507120038 39 24 0.0 2.0 0.00 0.08 0.00 97 1014.2
20260507114536 39 304 0.0 0.0 0.00 0.11 0.00 97 1014.3
20260507113036 39 304 0.0 2.0 0.00 0.11 0.00 97 1014.4
20260507111533 40 300 0.0 0.0 0.00 0.11 0.00 98 1014.2
20260507110030 40 300 0.0 0.0 0.00 0.11 0.00 97 1013.9
20260507104528 40 300 0.0 0.0 0.00 0.13 0.00 98 1013.4
20260507103027 39 300 0.0 0.0 0.00 0.13 0.00 97 1013.5
20260507101524 39 300 0.0 0.0 0.00 0.13 0.00 98 1013.2
20260507100029 38 300 0.0 0.0 0.00 0.13 0.00 98 1013.3
20260507094523 38 300 0.0 0.0 0.00 0.19 0.00 97 1013.4
20260507093022 38 300 0.0 0.0 0.00 0.19 0.00 97 1013.2
20260507091523 38 300 0.0 0.0 0.00 0.19 0.00 97 1013.3
20260507090022 39 300 0.0 0.0 0.00 0.19 0.00 97 1013.2
20260507084520 39 300 0.0 0.0 0.00 0.26 0.00 97 1013.2
20260507083019 38 300 0.0 0.0 0.00 0.26 0.00 97 1013.2
20260507081520 37 300 0.0 0.0 0.00 0.26 0.00 97 1013.4
20260507080017 37 300 0.0 0.0 0.00 0.35 0.00 96 1013.2
20260507074516 38 300 0.0 0.0 0.00 0.35 0.00 97 1013.2
20260507073015 38 300 0.0 0.0 0.00 0.35 0.00 96 1012.9
20260507071523 38 300 0.0 0.0 0.00 0.35 0.00 96 1013.1
20260507070013 39 300 0.0 0.0 0.00 0.41 0.00 96 1013.1
20260507064510 39 300 0.0 0.0 0.00 0.41 0.00 96 1013.1
20260507063006 40 300 0.0 0.0 0.00 0.41 0.00 96 1013.4
20260507061505 41 300 0.0 0.0 0.00 0.41 0.00 96 1013.5
20260507060002 41 300 0.0 0.0 0.00 0.48 0.00 96 1013.6
20260507054500 42 300 0.0 0.0 0.00 0.48 0.00 97 1013.6
20260507053110 42 300 0.0 1.0 0.00 0.48 0.00 96 1013.7
20260507051608 42 300 0.0 1.0 0.00 0.48 0.00 96 1013.7
20260507050056 42 300 0.0 2.0 0.00 0.48 0.00 96 1014.0
20260507044558 42 300 0.0 1.0 0.00 0.53 0.00 96 1013.9
20260507043056 42 300 0.0 0.0 0.00 0.53 0.00 96 1014.1